EHI
0 0 0 0 0 0 0 0 0 0 0 0 0 0 0 0 0 0 0 0 0 0 0 0 0 0 0 0 0 0 0 0 0 0 0 0 0 0 0 0 0 0 0
0 0 0 0 0 0 0 0 0 0 0 0 0 0 0 0 0 0 0 0 0 0 0 0 0 0 0 0 0 0 0 0 0 0 0 0 0 0 0 0 0 0 0
0 0 0 0 0 0 0 0 0 0 0 0 0 0 0 0 0 0 0 0 0 0 0 0 0 0 0 0 0 0 0 0 0 0 0 0 0 0 0 0 0 0 0
0 0 0 0 0 0 0 0 0 0 0 0 0 0 0 0 0 0 0 0 0 0 0 0 0 0 0 0 0 0 0 0 0 0 0 0 0 0 0 0 0 0 0
0 0 0 0 0 0 0 0 0 0 0 0 0 0 0 0 0 0 0 0 0 0 0 0 0 0 1 0 0 0 0 0 0 0 0 0 0 0 0 0 0 0 0
0 0 0 0 0 0 0 0 0 0 0 0 0 0 0 0 0 0 0 0 0 0 0 0 0 0 0 0 0 0 0 0 1 0 0 0 0 1 1 1 0 0 0
0 0 0 0 0 0 0 0 0 0 0 0 0 0 0 0 0 0 0 0 0 0 0 0 0 0 0 0 0 0 0 1 1 0 0 0 1 2 2 1 0 0 0
0 0 0 0 0 0 0 0 0 0 0 0 0 0 0 0 0 0 0 0 0 0 0 0 0 0 0 0 0 0 0 1 1 1 0 1 2 2 1 0 0 0 0
0 0 0 0 0 0 0 0 0 0 0 0 0 0 0 0 0 0 0 0 0 0 0 0 0 0 0 0 0 0 0 1 2 2 1 1 1 1 0 0 0 0 0
0 0 0 0 0 0 0 0 0 0 0 0 0 0 0 0 0 0 0 0 0 0 0 0 0 0 0 0 0 0 0 0 1 1 1 0 0 0 0 0 0 0 0
0 0 0 0 0 0 0 0 0 0 0 0 0 0 0 0 0 0 0 0 0 0 0 0 0 0 0 0 0 0 0 0 0 0 0 0 0 0 0 0 0 0 0
0 0 0 0 0 0 0 0 0 0 0 0 0 0 0 0 0 0 0 0 0 0 0 0 0 0 0 1 1 0 0 0 0 0 0 0 0 0 0 0 0 0 0
0 0 0 0 0 0 0 0 0 0 0 0 0 0 0 0 0 1 0 0 0 0 0 0 0 1 1 1 1 0 0 0 0 0 0 0 0 0 0 0 0 0 0
0 0 0 0 0 0 0 0 0 0 0 0 0 0 0 0 0 0 0 0 0 0 0 0 1 2 2 1 1 0 0 0 0 0 0 0 0 0 0 0 0 0 0
0 0 0 0 0 0 0 0 0 0 0 0 0 0 0 0 0 0 0 0 0 0 0 0 1 2 2 1 0 0 0 0 0 0 0 0 0 0 0 0 0 0 0
0 0 0 0 0 0 0 0 0 0 0 0 0 0 0 0 0 0 0 0 0 0 0 0 0 1 1 0 0 0 0 0 0 0 0 0 0 0 0 0 0 0 0
0 0 0 0 0 0 0 0 0 0 0 0 0 0 0 0 0 0 0 0 0 0 0 0 0 0 0 0 0 0 0 0 0 0 0 0 0 0 0 0 0 0 0
0 0 0 0 0 0 0 0 0 0 0 0 0 0 0 0 0 0 0 0 0 0 0 0 0 0 0 0 0 0 0 0 0 0 0 0 0 0 0 0 0 0 0
0 0 0 0 0 0 0 0 0 0 0 0 0 0 0 0 0 0 0 0 0 0 0 0 0 0 0 0 0 0 0 0 0 0 0 0 0 0 0 0 0 0 0
0 0 0 0 0 0 0 0 0 0 0 0 0 0 0 0 0 0 0 0 0 0 0 0 0 0 0 0 0 0 0 0 0 0 0 0 0 0 0 0 0 0 0
0 0 0 0 0 0 0 0 0 0 0 0 0 0 0 0 0 0 0 0 0 0 0 0 0 0 0 0 0 0 0 0 0 0 0 0 0 0 0 0 0 0 0
0 0 0 0 0 0 0 0 0 0 0 0 0 0 0 0 0 0 0 0 0 0 0 0 0 0 0 0 0 0 0 0 0 0 0 0 0 1 0 0 0 0 0
0 0 0 0 0 0 0 0 0 0 0 0 0 0 0 0 0 0 0 0 0 0 0 0 0 0 0 0 0 0 0 0 0 0 0 0 0 0 0 0 0 0 0
0 0 0 0 0 0 0 0 0 0 0 0 0 0 0 0 0 0 0 0 0 0 0 0 0 0 0 0 0 0 0 0 0 0 0 0 0 0 0 0 0 0 0
0 0 0 0 0 0 0 0 0 0 0 0 0 0 0 0 0 0 0 0 0 0 0 0 0 0 0 0 0 0 0 0 0 0 0 0 0 0 0 0 0 0 0
0 0 0 0 0 0 0 0 0 0 0 0 0 0 0 0 0 0 0 0 0 0 0 0 0 0 0 0 0 0 0 0 0 0 0 0 0 0 0 0 0 0 0
Wind_Speed
4 4 3 3 4 3 3 3 4 4 5 6 5 5 6 6 6 6 3 5 6 7 8 8 8 9 9 9 9 9 10 10 10 10 10 10 9 9 9 10 10 9 9
4 4 4 3 4 3 3 3 4 4 4 4 6 6 6 6 7 6 5 5 7 7 8 9 9 10 10 10 9 10 10 10 11 10 10 10 10 10 10 10 10 9 9
5 5 5 4 3 4 4 4 4 3 4 4 6 6 6 6 7 7 6 4 5 9 9 10 10 10 11 11 11 10 11 11 11 11 11 10 10 10 10 10 10 9 9
6 5 4 4 4 4 4 3 3 3 4 4 4 5 5 5 7 7 6 6 5 5 8 9 8 9 10 11 11 12 12 11 11 11 11 11 10 11 10 10 10 9 9
7 5 4 4 5 4 3 4 2 3 3 3 4 4 5 5 5 6 7 7 6 6 5 7 8 8 9 10 11 12 12 12 12 12 12 11 11 11 10 10 10 9 9
6 6 4 5 5 3 3 3 3 3 3 3 4 4 4 4 5 5 6 5 6 7 6 6 6 8 9 9 10 12 12 13 13 13 13 13 12 12 11 11 11 10 9
6 5 5 5 4 3 3 4 3 3 3 2 3 3 4 5 4 4 4 5 6 6 6 7 6 5 6 11 10 11 13 13 13 13 13 14 13 13 12 12 12 11 10
5 5 5 5 4 3 3 3 3 3 2 2 3 3 2 3 4 4 4 4 5 5 6 7 7 7 6 6 8 12 12 12 13 14 14 14 14 14 13 13 13 12 11
5 5 6 5 4 4 3 3 3 3 3 2 2 2 2 2 1 3 3 4 4 3 5 5 7 7 8 6 7 11 12 12 13 15 15 15 14 14 14 14 14 13 12
5 5 5 5 4 3 3 3 3 3 3 2 2 2 3 2 2 1 2 2 3 4 4 5 6 6 6 6 6 7 12 12 13 15 16 16 16 15 15 15 14 14 13
4 4 5 5 4 3 4 3 3 3 2 3 2 2 2 2 4 3 2 2 2 3 3 4 4 5 6 6 5 7 11 11 12 14 15 16 17 17 17 16 16 15 15
3 4 4 4 4 3 4 3 3 3 3 3 3 2 2 2 2 3 3 3 3 2 3 3 4 4 4 5 7 6 9 10 11 12 13 14 16 17 17 17 17 16 16
3 5 4 4 4 4 4 3 3 3 3 3 3 3 2 3 3 3 3 3 3 2 3 3 4 4 4 4 4 6 9 10 11 11 11 12 13 15 17 18 18 18 17
4 5 5 4 4 4 4 3 3 2 3 3 3 3 3 3 3 3 3 3 3 3 3 4 3 4 3 4 3 5 7 10 10 11 11 12 12 13 14 16 17 17 18
3 5 4 4 4 3 4 4 3 3 3 3 3 3 3 2 3 3 3 3 3 4 3 2 2 2 2 3 2 5 6 8 10 10 11 12 12 13 13 14 14 15 15
4 4 4 4 3 3 3 3 3 3 4 3 3 4 4 3 3 3 3 4 4 4 3 2 2 2 2 3 3 5 5 5 9 9 10 11 12 13 13 14 14 14 14
4 4 4 4 3 3 3 3 4 3 4 4 4 4 4 4 3 3 3 3 4 4 5 4 3 3 4 4 3 4 5 6 6 10 10 10 11 12 13 14 14 14 14
4 4 4 4 4 4 4 3 4 4 4 4 4 4 4 3 4 4 3 4 4 4 5 5 4 3 5 4 4 5 5 5 5 8 10 10 10 11 12 13 13 14 14
4 4 4 4 4 4 4 4 4 4 4 4 4 4 4 4 4 3 4 4 3 3 4 5 4 3 4 3 4 4 5 4 6 5 9 11 12 12 12 12 13 13 14
4 5 4 4 4 4 4 4 4 4 4 4 4 4 4 4 4 4 4 4 4 4 4 5 4 4 4 4 4 4 4 4 5 5 5 6 9 12 13 13 13 14 14
5 5 5 5 4 4 3 5 5 4 4 4 4 4 3 3 5 5 5 5 4 4 4 4 4 4 4 4 4 4 5 4 5 5 5 6 6 7 9 12 14 14 14
5 5 5 5 4 3 2 4 7 5 4 4 4 4 3 4 4 5 6 7 7 7 6 5 5 5 6 5 4 4 4 5 5 3 5 5 5 6 6 7 9 12 14
4 4 5 4 5 2 1 4 6 7 5 4 4 4 3 2 4 4 4 7 7 7 8 8 7 7 6 6 5 6 6 6 6 4 4 6 5 7 6 6 10 13 14
3 3 4 4 4 2 2 5 6 7 5 4 4 4 4 4 3 5 5 5 5 4 5 6 7 7 6 6 6 7 7 6 7 5 5 6 6 6 6 6 10 13 14
3 3 2 3 3 2 2 4 6 5 4 4 3 3 4 4 2 4 6 5 5 4 3 6 7 7 8 8 7 6 6 6 6 6 5 5 6 6 6 6 7 12 12
2 2 1 2 2 3 5 5 6 4 4 3 2 2 0 3 5 5 6 5 5 5 5 4 5 7 7 6 8 8 6 6 6 5 4 5 5 4 5 4 4 5 7
Wind_Direction
315 313 297 295 286 288 273 258 252 240 230 229 233 236 239 245 251 246 226 187 230 239 228 219 213 209 207 205 202 197 188 180 173 168 165 163 160 155 152 147 143 142 141
318 314 306 306 303 296 295 278 261 251 243 235 236 235 239 244 250 246 245 205 207 224 226 222 217 209 207 203 203 200 189 181 175 173 171 169 166 160 157 153 152 151 148
321 316 313 310 310 300 288 279 272 259 248 239 238 237 235 239 250 249 243 244 213 203 215 222 217 210 205 202 201 202 192 184 180 178 178 175 170 167 163 159 159 157 154
330 324 315 312 312 302 291 279 268 260 252 247 246 243 235 227 241 247 242 233 230 219 198 202 211 209 204 202 202 201 193 186 184 184 181 177 173 172 168 166 165 164 162
333 326 322 317 312 303 296 288 281 275 266 259 256 246 244 234 234 235 238 236 230 226 215 175 194 204 202 203 204 201 196 191 188 189 184 180 177 176 175 173 171 171 168
336 331 321 321 319 307 304 293 289 279 277 269 267 258 243 236 232 229 237 233 235 227 218 201 196 196 200 203 204 202 198 195 193 193 191 187 182 181 181 178 178 177 176
332 329 325 330 322 320 316 310 302 287 281 279 265 255 231 230 234 221 224 228 225 227 218 205 208 200 191 199 205 201 199 199 198 197 196 192 188 186 186 186 185 185 185
333 326 331 326 327 319 313 318 313 308 293 276 277 270 240 202 211 216 217 223 227 213 224 218 208 202 209 196 190 197 201 201 201 201 200 196 192 191 192 193 192 192 193
335 332 329 325 325 320 330 323 316 313 308 293 285 287 278 258 221 197 212 216 225 224 223 227 221 213 208 207 194 193 198 200 203 204 203 201 198 196 197 197 198 198 198
342 335 328 327 326 329 328 318 337 313 298 298 290 276 287 311 287 240 203 206 215 223 231 230 227 225 221 216 206 192 191 198 205 208 208 205 202 202 202 201 201 201 203
344 342 338 333 332 328 329 329 320 307 294 292 298 294 285 271 265 266 252 239 225 221 231 237 233 229 228 225 215 199 188 199 208 212 211 209 206 206 207 205 204 205 207
341 353 337 331 331 332 329 326 316 303 296 293 286 278 279 279 276 268 263 257 259 245 234 227 230 230 233 230 224 185 188 201 211 215 215 213 210 210 211 210 208 210 211
348 352 340 331 335 333 326 318 308 311 295 287 285 288 285 281 288 284 278 276 267 266 250 230 221 218 223 228 222 184 198 205 212 218 217 215 216 214 212 213 212 213 214
343 341 334 329 333 328 316 315 304 308 296 285 287 291 284 282 286 284 285 284 271 254 239 236 216 219 224 227 210 206 212 202 211 216 217 216 217 218 216 216 217 216 216
327 330 325 322 329 328 321 314 310 312 299 288 289 281 277 284 281 285 279 270 271 270 259 246 237 215 225 233 196 229 233 199 204 213 217 217 217 218 218 219 218 217 216
321 315 322 326 329 327 321 316 306 318 300 293 284 281 279 279 287 277 275 271 262 268 271 267 263 262 258 255 210 242 243 198 207 213 217 219 219 219 219 219 217 216 216
295 301 312 319 326 326 324 312 305 307 296 292 280 273 271 280 276 268 260 260 259 258 263 269 261 265 257 257 244 247 244 234 216 203 214 219 219 220 221 220 217 215 214
283 290 299 302 316 318 314 310 305 302 301 301 297 285 277 268 272 276 269 259 256 257 267 277 276 271 268 263 261 257 250 240 240 201 209 219 221 222 223 221 218 216 215
273 274 280 290 297 301 306 302 295 294 296 295 295 286 284 279 274 276 273 266 256 252 259 265 272 273 274 266 263 258 252 250 251 219 209 218 222 224 225 224 220 218 216
274 280 282 283 286 289 289 291 290 290 293 294 290 284 282 279 279 283 275 274 264 256 252 256 263 264 265 266 259 259 258 243 245 242 231 225 219 220 224 225 222 218 217
272 278 282 279 278 280 296 307 297 288 289 291 284 279 282 300 316 302 296 289 273 260 253 253 257 260 260 259 256 259 262 263 252 236 237 231 222 225 220 221 223 221 217
274 276 276 277 277 275 333 304 293 287 284 283 293 293 272 236 245 250 268 285 287 276 271 262 258 259 264 263 262 258 261 263 262 233 245 247 234 238 233 229 214 212 216
271 277 276 278 279 285 288 284 277 282 280 287 293 294 297 293 273 272 242 242 250 249 260 271 271 270 275 276 270 263 258 262 267 273 266 263 247 245 240 232 206 209 215
276 277 286 289 291 316 330 295 285 263 269 273 276 285 289 291 302 308 293 281 283 273 262 258 268 277 283 286 274 269 274 274 275 266 252 260 259 254 252 240 208 207 213
279 280 292 303 301 329 30 324 294 263 259 263 268 282 295 295 16 310 285 283 285 282 243 242 269 280 291 284 276 269 258 253 263 258 241 250 262 266 261 251 224 204 211
266 276 294 308 323 342 44 5 314 277 273 272 264 261 192 317 346 313 284 286 289 299 301 276 248 243 254 247 234 249 259 259 264 267 246 244 262 269 267 248 239 222 217